DIRECTV 8 (28659 NORAD) Tracking and Keplerian Element Data

This shows tracking and keplerian element data for the satellite.

Feedback or suggestion? Click here.




ElementValue
Catalog28659
NameDIRECTV 8
Epoch Orbit4815
Epoch Day198.46015113
Epoch Year2018
RAAN26.1478
Inclination0.0179
Eccentricity0.0002868
Argument of Perigee87.0336
Mean Anonmoly246.8488
Mean Motion1.00270159
Decay Rate-1.35E-06
L11 28659U 05019A 18198.46015113 -.00000135 00000-0 00000-0 0 9993
L22 28659 0.0179 26.1478 0002868 87.0336 246.8488 1.00270159 48151

Live tracking and technical data element details for DIRECTV 8 (NORAD 28659). DIRECTV 8 can be tracked NOW for your location showing map with azimuth and elevation plus other details from your city location.

Track the satellite on the map from your city or location and see movement details for azimuth, elevation, latitude, longitude, range, height, and movement on the map or in text.







IsCatalogInMostPopularTable: catalog: 28659, numindb: 47
Update: records affected: 1



GetName: 28659 DIRECTV 8

Hit Count: updated at: Sat, 21 Jul 2018 07:41:15 GMT